DW7447 Weather Reports


time (UTC)temp
C
wind
direction
speed
KPH
gust
KPH
rain 1hr
cm
rain 24hr
cm
rain mn
cm
humidity
%
barometer
mb
20260507171533 13 196 8.0 17.7 0.00 0.00 0.00 63 1014.3
20260507171034 13 182 9.7 19.3 0.00 0.00 0.00 63 1014.3
20260507170533 13 192 11.3 19.3 0.00 0.00 0.00 63 1014.4
20260507165532 13 199 12.9 22.5 0.00 0.00 0.00 64 1014.5
20260507165033 13 193 9.7 17.7 0.00 0.00 0.00 64 1014.6
20260507164532 13 200 6.4 19.3 0.00 0.00 0.00 64 1014.6
20260507164034 13 185 9.7 19.3 0.00 0.00 0.00 63 1014.6
20260507163533 13 206 8.0 19.3 0.00 0.00 0.00 64 1014.5
20260507163032 13 217 8.0 19.3 0.00 0.00 0.00 63 1014.5
20260507162534 13 190 6.4 17.7 0.00 0.00 0.00 63 1014.5
20260507161535 12 213 8.0 14.5 0.00 0.00 0.00 63 1014.6
20260507161033 12 161 4.8 17.7 0.00 0.00 0.00 63 1014.6
20260507160535 12 196 9.7 24.1 0.00 0.00 0.00 63 1014.6
20260507155533 12 182 11.3 20.9 0.00 0.00 0.00 61 1014.6
20260507155034 12 202 9.7 22.5 0.00 0.00 0.00 61 1014.7
20260507154032 12 189 9.7 20.9 0.00 0.00 0.00 61 1014.7
20260507153534 13 171 11.3 24.1 0.00 0.00 0.00 61 1014.7
20260507153030 13 200 14.5 24.1 0.00 0.00 0.00 61 1014.8
20260507152529 13 203 11.3 20.9 0.00 0.00 0.00 62 1014.8
20260507152029 12 179 14.5 25.7 0.00 0.00 0.00 61 1014.8
20260507151529 12 202 9.7 25.7 0.00 0.00 0.00 63 1014.8
20260507151030 12 209 14.5 25.7 0.00 0.00 0.00 64 1014.8
20260507150531 12 202 11.3 29.0 0.00 0.00 0.00 64 1014.9
20260507145504 12 188 12.9 27.4 0.00 0.00 0.00 63 1014.8
20260507145004 12 172 16.1 27.4 0.00 0.00 0.00 63 1014.9
20260507144504 12 195 12.9 22.5 0.00 0.00 0.00 64 1014.9
20260507144004 12 166 6.4 17.7 0.00 0.00 0.00 64 1014.9
20260507143433 12 183 11.3 22.5 0.00 0.00 0.00 64 1014.9
20260507142933 12 196 16.1 22.5 0.00 0.00 0.00 64 1015.0
20260507142431 12 197 12.9 22.5 0.00 0.00 0.00 65 1015.0
20260507141931 12 155 9.7 30.6 0.00 0.00 0.00 65 1015.1
20260507141430 12 192 14.5 30.6 0.00 0.00 0.00 64 1015.1
20260507140930 12 172 9.7 25.7 0.00 0.00 0.00 64 1015.0
20260507140430 12 192 14.5 29.0 0.00 0.00 0.00 63 1015.0
20260507135932 12 173 11.3 29.0 0.00 0.00 0.00 62 1015.2
20260507134930 13 135 11.3 32.2 0.00 0.00 0.00 61 1015.2
20260507134431 13 176 19.3 29.0 0.00 0.00 0.00 62 1015.2
20260507133929 13 185 14.5 27.4 0.00 0.00 0.00 61 1015.2
20260507133433 13 189 12.9 29.0 0.00 0.00 0.00 61 1015.3
20260507132931 13 169 17.7 30.6 0.00 0.00 0.00 62 1015.2
20260507132431 13 168 17.7 30.6 0.00 0.00 0.00 60 1015.2
20260507131932 13 168 19.3 30.6 0.00 0.00 0.00 60 1015.2
20260507130431 13 140 14.5 32.2 0.00 0.00 0.00 61 1015.2
20260507125930 13 144 12.9 32.2 0.00 0.00 0.00 60 1015.1
20260507124931 13 200 16.1 32.2 0.00 0.00 0.00 60 1015.2
20260507124432 13 199 16.1 32.2 0.00 0.00 0.00 60 1015.2
20260507123932 13 203 19.3 32.2 0.00 0.00 0.00 60 1015.2
20260507122932 13 186 11.3 25.7 0.00 0.00 0.00 62 1015.0
20260507122430 13 235 14.5 30.6 0.00 0.00 0.00 62 1015.2
20260507121930 13 226 16.1 30.6 0.00 0.00 0.00 63 1015.2
20260507121429 13 245 12.9 24.1 0.00 0.00 0.00 62 1015.2
20260507120933 13 197 11.3 27.4 0.00 0.00 0.00 63 1015.2
20260507120430 13 188 14.5 27.4 0.00 0.00 0.00 64 1015.2
20260507115930 13 219 12.9 24.1 0.00 0.00 0.00 64 1015.3
20260507115430 13 178 14.5 25.7 0.00 0.00 0.00 64 1015.3
20260507114429 13 190 14.5 30.6 0.00 0.00 0.00 61 1015.3
20260507113931 13 154 9.7 29.0 0.00 0.00 0.00 65 1015.3
20260507113433 13 185 16.1 29.0 0.00 0.00 0.00 64 1015.2
20260507112430 11 196 17.7 27.4 0.00 0.00 0.00 71 1015.3
20260507111933 11 202 12.9 27.4 0.00 0.00 0.00 72 1015.3
20260507110931 11 227 8.0 25.7 0.00 0.00 0.00 74 1015.3
20260507110431 10 186 12.9 25.7 0.00 0.00 0.00 74 1015.5
20260507105932 10 228 9.7 25.7 0.00 0.00 0.00 75 1015.5
20260507105433 10 185 14.5 25.7 0.00 0.00 0.00 76 1015.5
20260507104934 10 228 9.7 24.1 0.00 0.00 0.00 75 1015.5
20260507104430 10 200 9.7 24.1 0.00 0.00 0.00 75 1015.6
20260507103931 10 193 11.3 19.3 0.00 0.00 0.00 76 1015.6
20260507103431 10 216 9.7 24.1 0.00 0.00 0.00 75 1015.6
20260507102931 10 166 14.5 30.6 0.00 0.00 0.00 75 1015.6
20260507102432 10 162 9.7 30.6 0.00 0.00 0.00 75 1015.6
20260507101931 10 173 12.9 22.5 0.00 0.00 0.00 75 1015.5
20260507101431 10 175 8.0 30.6 0.00 0.00 0.00 75 1015.6
20260507100931 10 193 14.5 33.8 0.00 0.00 0.00 74 1015.6
20260507095932 10 204 12.9 22.5 0.00 0.00 0.00 74 1015.7
20260507095432 10 231 9.7 30.6 0.00 0.00 0.00 75 1015.6
20260507094933 10 223 16.1 30.6 0.00 0.00 0.00 75 1015.6
20260507094432 9 197 17.7 27.4 0.00 0.00 0.00 76 1015.6
20260507093930 9 213 16.1 27.4 0.00 0.00 0.00 76 1015.6
20260507092930 9 231 17.7 25.7 0.00 0.00 0.00 77 1015.7
20260507092432 9 217 11.3 30.6 0.00 0.00 0.00 78 1015.6
20260507091930 9 162 12.9 30.6 0.00 0.00 0.00 79 1015.6
20260507091433 9 214 9.7 27.4 0.00 0.00 0.00 79 1015.5
20260507090430 9 219 12.9 24.1 0.00 0.00 0.00 79 1015.7
20260507085930 9 173 11.3 29.0 0.00 0.00 0.00 79 1015.6
20260507084931 9 196 11.3 24.1 0.00 0.00 0.00 79 1015.8
20260507084431 9 173 9.7 24.1 0.00 0.00 0.00 79 1015.8
20260507083939 8 189 11.3 24.1 0.00 0.00 0.00 80 1015.9
20260507083432 8 223 6.4 24.1 0.00 0.00 0.00 79 1015.9
20260507082930 8 192 16.1 24.1 0.00 0.00 0.00 79 1015.9
20260507082430 8 219 12.9 22.5 0.00 0.00 0.00 79 1015.9
20260507081933 8 195 6.4 27.4 0.00 0.00 0.00 78 1015.9
20260507081430 8 166 16.1 27.4 0.00 0.00 0.00 78 1015.9
20260507080932 8 171 14.5 27.4 0.00 0.00 0.00 78 1015.9
20260507080432 8 157 11.3 22.5 0.00 0.00 0.00 79 1015.8
20260507075932 8 182 6.4 19.3 0.00 0.00 0.00 79 1015.8
20260507075431 8 227 3.2 14.5 0.00 0.00 0.00 80 1015.8
20260507074932 8 182 6.4 17.7 0.00 0.00 0.00 79 1015.8
20260507073933 8 196 9.7 20.9 0.00 0.00 0.00 80 1015.8
20260507072929 7 155 9.7 20.9 0.00 0.00 0.00 80 1015.7
20260507072432 7 178 8.0 22.5 0.00 0.00 0.00 81 1015.7
20260507071930 7 185 6.4 22.5 0.00 0.00 0.00 81 1015.8
20260507071432 7 172 8.0 14.5 0.00 0.00 0.00 83 1015.7
20260507065929 7 135 8.0 20.9 0.00 0.00 0.00 85 1015.7
20260507065432 7 141 8.0 20.9 0.00 0.00 0.00 85 1015.7
20260507064931 6 169 8.0 19.3 0.00 0.00 0.00 86 1015.7
20260507064432 6 140 8.0 19.3 0.00 0.00 0.00 89 1015.7
20260507063930 6 196 8.0 19.3 0.00 0.00 0.00 89 1015.8
20260507063430 6 179 8.0 19.3 0.00 0.00 0.00 90 1015.6
20260507062931 6 189 3.2 12.9 0.00 0.00 0.00 91 1015.6
20260507062431 5 162 6.4 12.9 0.00 0.00 0.00 92 1015.6
20260507061932 5 68 0.0 8.0 0.00 0.00 0.00 93 1015.6
20260507061430 5 0 1.6 8.0 0.00 0.00 0.00 93 1015.7
20260507060932 5 0 1.6 6.4 0.00 0.00 0.00 94 1015.7
20260507060431 4 0 1.6 6.4 0.00 0.00 0.00 94 1015.6
20260507055931 4 162 0.0 8.0 0.00 0.00 0.00 94 1015.6
20260507054931 3 93 3.2 8.0 0.00 0.00 0.00 94 1015.6
20260507054432 3 237 1.6 6.4 0.00 0.00 0.00 94 1015.6
20260507053931 3 237 0.0 4.8 0.00 0.00 0.00 93 1015.5
20260507053431 3 237 0.0 6.4 0.00 0.00 0.00 93 1015.6
20260507052430 3 237 0.0 8.0 0.00 0.00 0.00 94 1015.5
20260507051931 2 237 1.6 9.7 0.00 0.00 0.00 94 1015.5
20260507051431 2 248 3.2 9.7 0.00 0.00 0.00 93 1015.5
20260507050932 2 279 3.2 8.0 0.00 0.00 0.00 93 1015.5
20260507045930 2 21 1.6 6.4 0.00 0.00 0.00 92 1015.4
20260507045429 2 343 0.0 6.4 0.00 0.00 0.00 92 1015.6
20260507044930 2 296 0.0 8.0 0.00 0.00 0.00 92 1015.6
20260507043930 2 295 1.6 8.0 0.00 0.00 0.00 92 1015.6
20260507042930 2 254 1.6 6.4 0.00 0.00 0.00 92 1015.6
20260507042430 2 254 0.0 6.4 0.00 0.00 0.00 92 1015.6
20260507041929 2 254 1.6 6.4 0.00 0.00 0.00 92 1015.4
20260507041429 2 258 0.0 6.4 0.00 0.00 0.00 92 1015.5
20260507040931 2 258 0.0 6.4 0.00 0.00 0.00 92 1015.5
20260507035931 2 176 0.0 6.4 0.00 0.00 0.00 92 1015.5
20260507035430 2 178 0.0 6.4 0.00 0.00 0.00 92 1015.5
20260507034932 2 176 1.6 6.4 0.00 0.00 0.00 92 1015.4
20260507034432 2 176 0.0 6.4 0.00 0.00 0.00 92 1015.5
20260507033431 2 178 1.6 8.0 0.00 0.00 0.00 92 1015.5
20260507032929 2 166 3.2 8.0 0.00 0.00 0.00 92 1015.5
20260507031932 1 169 1.6 6.4 0.00 0.00 0.00 91 1015.6
20260507031431 1 169 0.0 6.4 0.00 0.00 0.00 91 1015.6
20260507030930 1 169 0.0 6.4 0.00 0.00 0.00 90 1015.6
20260507030431 1 169 0.0 6.4 0.00 0.00 0.00 90 1015.6
20260507025930 1 138 1.6 4.8 0.00 0.00 0.00 90 1015.6
20260507025431 1 138 0.0 3.2 0.00 0.00 0.00 89 1015.7
20260507024931 1 138 0.0 3.2 0.00 0.00 0.00 89 1015.7
20260507024431 1 138 0.0 6.4 0.00 0.00 0.00 89 1015.6
20260507023430 2 138 0.0 6.4 0.00 0.00 0.00 89 1015.7
20260507022432 2 138 0.0 4.8 0.00 0.00 0.00 89 1015.7
20260507021931 2 138 0.0 6.4 0.00 0.00 0.00 89 1015.6
20260507021431 2 138 0.0 6.4 0.00 0.00 0.00 89 1015.7
20260507020930 2 138 0.0 3.2 0.00 0.00 0.00 89 1015.6
20260507020430 2 138 0.0 3.2 0.00 0.00 0.00 89 1015.7
20260507015931 2 138 0.0 6.4 0.00 0.00 0.00 89 1015.7
20260507015431 2 138 0.0 8.0 0.00 0.00 0.00 89 1015.7
20260507014929 2 138 3.2 8.0 0.00 0.00 0.00 89 1015.7
20260507014429 2 148 1.6 8.0 0.00 0.00 0.00 89 1015.7
20260507013931 2 173 3.2 8.0 0.00 0.00 0.00 89 1015.8
20260507013430 2 182 0.0 6.4 0.00 0.00 0.00 89 1015.8
20260507012430 2 182 0.0 8.0 0.00 0.00 0.00 88 1015.8
20260507011931 2 182 1.6 11.3 0.00 0.00 0.00 88 1015.8
20260507011431 2 179 1.6 11.3 0.00 0.00 0.00 88 1015.8
20260507010430 2 180 1.6 6.4 0.00 0.00 0.00 88 1015.8
20260507005931 2 178 0.0 6.4 0.00 0.00 0.00 88 1015.9
20260507005431 3 178 3.2 8.0 0.00 0.00 0.00 88 1015.9
20260507004932 3 186 1.6 8.0 0.00 0.00 0.00 88 1015.8
20260507003429 3 178 0.0 8.0 0.00 0.00 0.00 88 1015.8
20260507002930 3 178 0.0 12.9 0.00 0.00 0.00 88 1015.9
20260507002431 3 189 3.2 12.9 0.00 0.00 0.00 88 1015.8
20260507001430 3 172 6.4 12.9 0.00 0.00 0.00 88 1015.7
20260507000931 3 147 4.8 14.5 0.00 0.00 0.00 87 1015.8
20260507000431 3 151 6.4 14.5 0.00 0.00 0.00 87 1015.9
20260506235931 3 192 1.6 8.0 0.00 0.00 0.00 87 1015.9
20260506235429 3 196 3.2 9.7 0.00 0.00 0.00 87 1015.9
20260506234930 3 186 3.2 9.7 0.00 0.00 0.00 87 1015.9
20260506234430 3 190 4.8 9.7 0.00 0.00 0.00 86 1015.9
20260506233929 3 173 3.2 14.5 0.00 0.00 0.00 86 1015.9
20260506233431 3 179 4.8 14.5 0.00 0.00 0.00 86 1016.2
20260506232931 3 180 4.8 12.9 0.00 0.00 0.00 86 1016.1
20260506232430 3 179 6.4 12.9 0.00 0.00 0.00 86 1016.2
20260506231432 3 200 4.8 14.5 0.00 0.00 0.00 86 1016.1
20260506230931 3 206 4.8 14.5 0.00 0.00 0.00 86 1016.1
20260506230430 3 176 6.4 11.3 0.00 0.00 0.00 86 1016.1
20260506225929 3 149 6.4 11.3 0.00 0.00 0.00 85 1016.0
20260506224929 3 165 6.4 12.9 0.00 0.00 0.00 85 1016.1
20260506223930 3 140 4.8 11.3 0.00 0.00 0.00 85 1016.1
20260506223431 3 165 6.4 11.3 0.00 0.00 0.00 84 1016.0
20260506222429 3 151 3.2 11.3 0.00 0.00 0.00 84 1016.1
20260506221929 3 173 4.8 11.3 0.00 0.00 0.00 83 1016.2
20260506221429 3 168 3.2 9.7 0.00 0.00 0.00 83 1016.1
20260506220931 3 147 4.8 9.7 0.00 0.00 0.00 83 1016.2
20260506220431 3 147 1.6 9.7 0.00 0.00 0.00 82 1016.1
20260506215930 3 130 4.8 9.7 0.00 0.00 0.00 82 1016.1
20260506215430 3 137 4.8 9.7 0.00 0.00 0.00 82 1016.2
20260506214931 3 120 3.2 11.3 0.00 0.00 0.00 82 1016.1
20260506213930 3 100 4.8 12.9 0.00 0.00 0.00 82 1016.1
20260506213430 4 118 6.4 12.9 0.00 0.00 0.00 82 1016.2
20260506212930 4 134 6.4 12.9 0.00 0.00 0.00 81 1016.2
20260506212431 4 117 6.4 12.9 0.00 0.00 0.00 80 1016.2
20260506211932 4 121 1.6 9.7 0.00 0.00 0.00 80 1016.1
20260506211431 4 106 3.2 9.7 0.00 0.00 0.00 80 1016.1
20260506210929 4 114 3.2 11.3 0.00 0.00 0.00 80 1016.1
20260506210430 4 131 3.2 11.3 0.00 0.00 0.00 79 1016.1
20260506205930 5 147 4.8 11.3 0.00 0.00 0.00 79 1016.2
20260506205429 5 138 6.4 11.3 0.00 0.00 0.00 79 1016.0
20260506204430 5 166 4.8 11.3 0.00 0.00 0.00 78 1016.0
20260506203431 5 159 1.6 8.0 0.00 0.00 0.00 78 1016.1
20260506201929 6 165 1.6 6.4 0.00 0.00 0.00 77 1016.1
20260506201430 6 166 3.2 8.0 0.00 0.00 0.00 77 1016.0
20260506200930 6 168 3.2 8.0 0.00 0.00 0.00 76 1016.1
20260506200430 6 96 3.2 9.7 0.00 0.00 0.00 76 1016.0
20260506194932 6 89 3.2 8.0 0.00 0.00 0.00 75 1015.9
20260506193930 7 89 1.6 8.0 0.00 0.00 0.00 74 1015.9
20260506193430 7 82 3.2 11.3 0.00 0.00 0.00 73 1015.9
20260506192930 7 80 3.2 11.3 0.00 0.00 0.00 73 1016.0
20260506191930 7 75 4.8 11.3 0.00 0.00 0.00 72 1015.9
20260506191429 7 55 6.4 11.3 0.00 0.00 0.00 72 1015.8
20260506190929 7 73 3.2 14.5 0.00 0.00 0.00 70 1015.8
20260506190429 7 58 3.2 14.5 0.00 0.00 0.00 70 1015.7
20260506185930 7 69 6.4 12.9 0.00 0.00 0.00 70 1015.8
20260506185430 7 51 6.4 12.9 0.00 0.00 0.00 70 1015.8
20260506184930 8 92 6.4 11.3 0.00 0.00 0.00 69 1015.8
20260506184430 8 52 3.2 14.5 0.00 0.00 0.00 70 1015.7
20260506183930 8 38 6.4 14.5 0.00 0.00 0.00 70 1015.7
20260506183431 8 16 6.4 14.5 0.00 0.00 0.00 68 1015.7
20260506182929 8 73 8.0 19.3 0.00 0.00 0.00 68 1015.7
20260506182429 8 58 9.7 19.3 0.00 0.00 0.00 68 1015.7
20260506181929 8 69 3.2 17.7 0.00 0.00 0.00 68 1015.6
20260506181431 8 86 8.0 17.7 0.00 0.00 0.00 67 1015.6
20260506180931 8 45 8.0 17.7 0.00 0.00 0.00 68 1015.6
20260506180430 8 48 6.4 17.7 0.00 0.00 0.00 67 1015.4
20260506175907 8 66 6.4 14.5 0.00 0.00 0.00 68 1015.5
20260506174904 8 61 3.2 14.5 0.00 0.00 0.00 67 1015.5
20260506174403 8 86 6.4 19.3 0.00 0.00 0.00 67 1015.4
20260506172848 8 58 8.0 17.7 0.00 0.00 0.00 69 1015.5
20260506172331 8 71 8.0 17.7 0.00 0.00 0.00 68 1015.6
20260506171832 8 358 8.0 17.7 0.00 0.00 0.00 67 1015.6